Regional Weather Roundup
Issued by NWS Kansas City/Pleasant Hill, MO

Home | Current Version | Previous Version | Text Only | Print | Product List | Glossary On
Versions: 1 2 3 4 5 6 7 8 9 10 11 12 13 14 15 16 17 18 19 20 21 22 23 24 25 26 27 28 29 30 31 32 33 34 35 36 37 38 39 40 41 42 43 44 45 46 47 48 49 50
000
ASUS43 KEAX 160810
RWREAX

WEATHER ROUNDUP FOR EASTERN KANSAS AND NORTHWEST MISSOURI
NATIONAL WEATHER SERVICE KANSAS CITY/PLEASANT HILL MO
300 AM CDT WED APR 16 2014

KSZ040-057-103>105-MOZ028-029-037-043-160900-
...KANSAS CITY METROPOLITAN AREA...

CITY           SKY/WX    TMP DP  RH WIND       PRES   REMARKS
K.C. INTL      PTCLDY    46  25  43 S21       29.96F
K.C. DOWNTOWN  PTCLDY    47  25  42 S13G25    29.99F
LEES SUMMIT    PTCLDY    45  25  45 S13G21    30.00F
OLATHE - IXD   PTCLDY    44  27  51 SE15G25   29.98F
OLATHE - OJC   PTCLDY    43  26  51 S20       29.98F WCI  34
LAWRENCE       PTCLDY    45  29  53 SE13      29.96F

$$

MOZ001>008-011>017-020>025-030>033-038>040-044>046-053-054-160900-
...NORTHERN AND CENTRAL MISSOURI...

CITY           SKY/WX    TMP DP  RH WIND       PRES   REMARKS
ST. JOSEPH     PTCLDY    45  27  49 S18       29.94F
MOSBY          FAIR      43  28  56 SE8       30.00F
WARRENSBURG    CLEAR    N/A N/A N/A SE9       30.04F
WHITEMAN AFB   CLEAR     42  22  45 S12       30.05F
CLINTON        MOCLDY    46  28  49 S13       30.07S
SEDALIA        CLEAR     42  25  50 S13       30.08S
WARSAW         NOT AVBL
MARSHALL         N/A     43  30  61 SE8       30.08
CHILLICOTHE      N/A     43  25  49 SE12      30.03F
MOBERLY        CLEAR     41  23  48 SE17      30.08F WCI  32
KIRKSVILLE     CLEAR     37  25  61 S13       30.05F WCI  29

$$

MOZ041-047>049-056>058-063>065-088>090-097-160900-
...EASTERN AND SOUTHERN MISSOURI...

CITY           SKY/WX    TMP DP  RH WIND       PRES   REMARKS
ST. LOUIS INTL PTCLDY    41  22  46 SE12      30.21F WCI  34
SPIRIT OF STL  PTCLDY    39  21  48 SE5       30.20S
COLUMBIA       CLEAR     37  23  56 SE10      30.12S WCI  30
JEFFERSON CITY PTCLDY    40  23  50 E9        30.14S WCI  34
MEXICO         CLEAR     32  27  80 SE10      30.13F WCI  24
HANNIBAL       PTCLDY    37  19  48 SE9       30.13S WCI  31
ROLLA          MOCLDY    37  24  59 S15G23    30.13S WCI  28
LEBANON        PTCLDY    39  23  52 SE9       30.12F WCI  33
OSAGE BEACH    MOCLDY    39  21  48 SE6       30.14S WCI  35
SPRINGFIELD    CLEAR     42  24  49 SE16      30.09F WCI  34
BRANSON        MOCLDY    39  27  60 SE10      30.13F WCI  32
NEVADA         CLOUDY    45  27  49 SE16      30.05F
JOPLIN         CLEAR     43  25  49 SE10      30.05F
WEST PLAINS    CLEAR     36  25  64 SE5       30.18F WCI  32

$$

IAZ060-094-KSZ022-034>040-054-083-096-NEZ052-066-093-160900-
...KANSAS...SOUTHEAST NEBRASKA AND IOWA...

CITY           SKY/WX    TMP DP  RH WIND       PRES   REMARKS
TOPEKA         PTCLDY    48  28  46 SE14      29.94F
MANHATTAN      CLEAR     49  26  41 S16G22    29.86F
EMPORIA        PTCLDY    45  28  51 S15G25    29.93F
CHANUTE        MOCLDY    45  29  53 SE14      30.00F
WICHITA        PTCLDY    49  22  34 S18       29.90F
OMAHA          CLOUDY    46  29  51 S22G35    29.79F
LINCOLN        PTCLDY    49  22  34 S24G37    29.75F
FALLS CITY     CLEAR     46  29  51 S18       29.87F
LAMONI         CLEAR     40  27  59 S15G23    29.94F WCI  32
DES MOINES     MOCLDY    41  28  60 S16       29.94F WCI  33

$$




USA.gov is the U.S. government's official web portal to all federal, state and local government web resources and services.